Time,TemperatureF,DewpointF,PressureIn,WindDirection,WindDirectionDegrees,WindSpeedMPH,WindSpeedGustMPH,Humidity,HourlyPrecipIn,Conditions,Clouds,dailyrainin,SoftwareType,DateUTC
2013-05-25 00:02:00,66.0,57.0,30.16,East,92,0.0,0.0,72,0.00,,,0.00,,2013-05-25 05:02:00,
2013-05-25 00:12:00,66.0,57.0,30.16,East,92,0.0,0.0,72,0.00,,,0.00,,2013-05-25 05:12:00,
2013-05-25 00:22:00,66.0,57.0,30.16,East,92,0.0,0.0,73,0.00,,,0.00,,2013-05-25 05:22:00,
2013-05-25 00:32:00,65.0,56.0,30.15,East,92,0.0,0.0,74,0.00,,,0.00,,2013-05-25 05:32:00,
2013-05-25 00:42:00,65.0,56.0,30.15,East,92,0.0,0.0,74,0.00,,,0.00,,2013-05-25 05:42:00,
2013-05-25 00:52:00,64.0,56.0,30.15,East,92,0.0,0.0,76,0.00,,,0.00,,2013-05-25 05:52:00,
2013-05-25 01:02:00,63.0,56.0,30.15,East,92,0.0,0.0,77,0.00,,,0.00,,2013-05-25 06:02:00,
2013-05-25 01:12:00,63.0,56.0,30.15,East,92,0.0,0.0,78,0.00,,,0.00,,2013-05-25 06:12:00,
2013-05-25 01:21:00,63.0,56.0,30.15,East,92,0.0,0.0,78,0.00,,,0.00,,2013-05-25 06:21:00,
2013-05-25 01:32:00,62.0,56.0,30.15,East,92,0.0,0.0,81,0.00,,,0.00,,2013-05-25 06:32:00,
2013-05-25 01:42:00,62.0,56.0,30.15,East,92,0.0,0.0,81,0.00,,,0.00,,2013-05-25 06:42:00,
2013-05-25 01:52:00,62.0,56.0,30.15,East,92,0.0,0.0,81,0.00,,,0.00,,2013-05-25 06:52:00,
2013-05-25 02:01:00,62.0,56.0,30.15,East,92,0.0,0.0,82,0.00,,,0.00,,2013-05-25 07:01:00,
2013-05-25 02:11:00,62.0,56.0,30.15,East,92,0.0,0.0,82,0.00,,,0.00,,2013-05-25 07:11:00,
2013-05-25 02:21:00,61.0,56.0,30.15,East,92,0.0,0.0,83,0.00,,,0.00,,2013-05-25 07:21:00,
2013-05-25 02:32:00,60.0,55.0,30.14,East,92,0.0,0.0,84,0.00,,,0.00,,2013-05-25 07:32:00,
2013-05-25 02:42:00,60.0,55.0,30.14,East,92,0.0,0.0,84,0.00,,,0.00,,2013-05-25 07:42:00,
2013-05-25 02:52:00,60.0,55.0,30.14,East,92,0.0,0.0,84,0.00,,,0.00,,2013-05-25 07:52:00,
2013-05-25 03:02:00,60.0,56.0,30.14,East,92,0.0,0.0,86,0.00,,,0.00,,2013-05-25 08:02:00,
2013-05-25 03:11:00,60.0,56.0,30.14,East,92,0.0,0.0,86,0.00,,,0.00,,2013-05-25 08:11:00,
2013-05-25 03:22:00,60.0,56.0,30.14,East,92,0.0,0.0,86,0.00,,,0.00,,2013-05-25 08:22:00,
2013-05-25 03:32:00,59.0,55.0,30.15,East,92,0.0,0.0,87,0.00,,,0.00,,2013-05-25 08:32:00,
2013-05-25 03:42:00,59.0,55.0,30.15,East,92,0.0,0.0,87,0.00,,,0.00,,2013-05-25 08:42:00,
2013-05-25 03:51:00,59.0,55.0,30.15,East,92,0.0,0.0,87,0.00,,,0.00,,2013-05-25 08:51:00,
2013-05-25 04:02:00,59.0,55.0,30.16,East,92,0.0,0.0,87,0.00,,,0.00,,2013-05-25 09:02:00,
2013-05-25 04:11:00,59.0,55.0,30.16,East,92,0.0,0.0,87,0.00,,,0.00,,2013-05-25 09:11:00,
2013-05-25 04:21:00,59.0,55.0,30.16,East,92,0.0,0.0,88,0.00,,,0.00,,2013-05-25 09:21:00,
2013-05-25 04:33:00,59.0,54.0,30.16,East,92,0.0,0.0,85,0.00,,,0.00,,2013-05-25 09:33:00,
2013-05-25 04:42:00,59.0,54.0,30.16,East,92,0.0,0.0,85,0.00,,,0.00,,2013-05-25 09:42:00,
2013-05-25 04:52:00,59.0,54.0,30.16,East,92,0.0,0.0,83,0.00,,,0.00,,2013-05-25 09:52:00,
2013-05-25 05:03:00,59.0,53.0,30.18,East,84,0.0,2.0,81,0.00,,,0.00,,2013-05-25 10:03:00,
2013-05-25 05:12:00,59.0,53.0,30.18,East,84,0.0,2.0,81,0.00,,,0.00,,2013-05-25 10:12:00,
2013-05-25 05:22:00,59.0,52.0,30.18,North,5,0.0,2.0,77,0.00,,,0.00,,2013-05-25 10:22:00,
2013-05-25 05:33:00,60.0,51.0,30.18,ESE,109,1.0,4.0,71,0.00,,,0.00,,2013-05-25 10:33:00,
2013-05-25 05:42:00,60.0,51.0,30.18,ESE,109,1.0,4.0,71,0.00,,,0.00,,2013-05-25 10:42:00,
2013-05-25 05:52:00,60.0,51.0,30.18,East,88,0.0,1.0,72,0.00,,,0.00,,2013-05-25 10:52:00,
2013-05-25 06:02:00,60.0,50.0,30.20,ENE,57,0.0,0.0,70,0.00,,,0.00,,2013-05-25 11:02:00,
2013-05-25 06:12:00,60.0,50.0,30.20,ENE,57,0.0,0.0,70,0.00,,,0.00,,2013-05-25 11:12:00,
2013-05-25 06:21:00,60.0,51.0,30.20,ENE,57,0.0,0.0,73,0.00,,,0.00,,2013-05-25 11:21:00,
2013-05-25 06:32:00,59.0,52.0,30.20,ENE,57,0.0,0.0,78,0.00,,,0.00,,2013-05-25 11:32:00,
2013-05-25 06:41:00,59.0,52.0,30.20,ENE,57,0.0,0.0,78,0.00,,,0.00,,2013-05-25 11:41:00,
2013-05-25 06:52:00,58.0,52.0,30.20,ENE,57,0.0,0.0,81,0.00,,,0.00,,2013-05-25 11:52:00,
2013-05-25 07:01:00,58.0,53.0,30.21,ENE,57,0.0,0.0,83,0.00,,,0.00,,2013-05-25 12:01:00,
2013-05-25 07:12:00,58.0,53.0,30.21,ENE,57,0.0,0.0,83,0.00,,,0.00,,2013-05-25 12:12:00,
2013-05-25 07:22:00,58.0,53.0,30.21,ENE,57,0.0,0.0,84,0.00,,,0.00,,2013-05-25 12:22:00,
2013-05-25 07:32:00,59.0,54.0,30.22,ENE,57,0.0,0.0,84,0.00,,,0.00,,2013-05-25 12:32:00,
2013-05-25 07:42:00,59.0,54.0,30.22,ENE,57,0.0,0.0,84,0.00,,,0.00,,2013-05-25 12:42:00,
2013-05-25 07:52:00,61.0,55.0,30.22,ENE,57,0.0,0.0,80,0.00,,,0.00,,2013-05-25 12:52:00,
2013-05-25 08:02:00,65.0,55.0,30.22,ENE,57,0.0,0.0,69,0.00,,,0.00,,2013-05-25 13:02:00,
2013-05-25 08:11:00,65.0,55.0,30.22,ENE,57,0.0,0.0,69,0.00,,,0.00,,2013-05-25 13:11:00,
2013-05-25 08:21:00,67.0,54.0,30.22,ENE,57,2.0,5.0,62,0.00,,,0.00,,2013-05-25 13:21:00,
2013-05-25 08:32:00,71.0,54.0,30.23,ESE,111,0.0,5.0,56,0.00,,,0.00,,2013-05-25 13:32:00,
2013-05-25 08:42:00,71.0,54.0,30.23,ESE,111,0.0,5.0,56,0.00,,,0.00,,2013-05-25 13:42:00,
2013-05-25 08:52:00,72.0,52.0,30.23,ESE,104,1.0,3.0,49,0.00,,,0.00,,2013-05-25 13:52:00,
2013-05-25 09:02:00,74.0,51.0,30.23,ESE,105,0.0,5.0,45,0.00,,,0.00,,2013-05-25 14:02:00,
2013-05-25 09:11:00,74.0,51.0,30.23,ESE,105,0.0,5.0,45,0.00,,,0.00,,2013-05-25 14:11:00,
2013-05-25 09:22:00,75.0,52.0,30.23,ESE,118,0.0,3.0,45,0.00,,,0.00,,2013-05-25 14:22:00,
2013-05-25 09:32:00,76.0,52.0,30.23,ENE,70,1.0,4.0,43,0.00,,,0.00,,2013-05-25 14:32:00,
2013-05-25 09:42:00,76.0,52.0,30.23,ENE,70,1.0,4.0,43,0.00,,,0.00,,2013-05-25 14:42:00,
2013-05-25 09:52:00,77.0,54.0,30.23,ENE,74,0.0,5.0,45,0.00,,,0.00,,2013-05-25 14:52:00,
2013-05-25 10:01:00,79.0,52.0,30.23,East,90,0.0,4.0,39,0.00,,,0.00,,2013-05-25 15:01:00,
2013-05-25 10:11:00,79.0,52.0,30.23,East,90,0.0,4.0,39,0.00,,,0.00,,2013-05-25 15:11:00,
2013-05-25 10:22:00,80.0,53.0,30.23,SE,129,0.0,4.0,39,0.00,,,0.00,,2013-05-25 15:22:00,
2013-05-25 10:33:00,81.0,55.0,30.23,SSE,147,0.0,4.0,41,0.00,,,0.00,,2013-05-25 15:33:00,
2013-05-25 10:43:00,81.0,55.0,30.23,SSE,147,0.0,4.0,41,0.00,,,0.00,,2013-05-25 15:43:00,
2013-05-25 10:53:00,81.0,54.0,30.23,East,84,0.0,4.0,39,0.00,,,0.00,,2013-05-25 15:53:00,
2013-05-25 11:03:00,82.0,54.0,30.23,ESE,123,1.0,5.0,38,0.00,,,0.00,,2013-05-25 16:03:00,
2013-05-25 11:12:00,82.0,54.0,30.23,ESE,123,1.0,5.0,38,0.00,,,0.00,,2013-05-25 16:12:00,
2013-05-25 11:23:00,82.0,55.0,30.23,ESE,123,0.0,4.0,39,0.00,,,0.00,,2013-05-25 16:23:00,
2013-05-25 11:32:00,83.0,53.0,30.22,ENE,62,0.0,5.0,36,0.00,,,0.00,,2013-05-25 16:32:00,
2013-05-25 11:42:00,83.0,53.0,30.22,ENE,62,0.0,5.0,36,0.00,,,0.00,,2013-05-25 16:42:00,
2013-05-25 11:52:00,83.0,54.0,30.22,ESE,107,1.0,4.0,37,0.00,,,0.00,,2013-05-25 16:52:00,
2013-05-25 12:02:00,84.0,50.0,30.22,SE,142,0.0,3.0,31,0.00,,,0.00,,2013-05-25 17:02:00,
2013-05-25 12:11:00,84.0,50.0,30.22,SE,142,0.0,3.0,31,0.00,,,0.00,,2013-05-25 17:11:00,
2013-05-25 12:22:00,85.0,52.0,30.22,East,94,1.0,3.0,32,0.00,,,0.00,,2013-05-25 17:22:00,
2013-05-25 12:32:00,85.0,51.0,30.21,SSE,163,1.0,4.0,31,0.00,,,0.00,,2013-05-25 17:32:00,
2013-05-25 12:42:00,85.0,51.0,30.21,SSE,163,1.0,4.0,31,0.00,,,0.00,,2013-05-25 17:42:00,
2013-05-25 12:52:00,85.0,54.0,30.21,SSE,161,0.0,5.0,35,0.00,,,0.00,,2013-05-25 17:52:00,
2013-05-25 13:01:00,86.0,54.0,30.20,NE,56,0.0,4.0,33,0.00,,,0.00,,2013-05-25 18:01:00,
2013-05-25 13:11:00,86.0,54.0,30.20,NE,56,0.0,4.0,33,0.00,,,0.00,,2013-05-25 18:11:00,
2013-05-25 13:21:00,86.0,54.0,30.20,SE,132,1.0,5.0,33,0.00,,,0.00,,2013-05-25 18:21:00,
2013-05-25 13:32:00,87.0,53.0,30.19,East,87,1.0,5.0,31,0.00,,,0.00,,2013-05-25 18:32:00,
2013-05-25 13:42:00,87.0,53.0,30.19,East,87,1.0,5.0,31,0.00,,,0.00,,2013-05-25 18:42:00,
2013-05-25 13:52:00,87.0,53.0,30.19,East,84,0.0,3.0,31,0.00,,,0.00,,2013-05-25 18:52:00,
2013-05-25 14:01:00,87.0,53.0,30.18,ESE,103,0.0,5.0,31,0.00,,,0.00,,2013-05-25 19:01:00,
2013-05-25 14:11:00,87.0,53.0,30.18,ESE,103,0.0,5.0,31,0.00,,,0.00,,2013-05-25 19:11:00,
2013-05-25 14:21:00,87.0,50.0,30.18,SE,130,0.0,5.0,28,0.00,,,0.00,,2013-05-25 19:21:00,
2013-05-25 14:32:00,88.0,51.0,30.17,ENE,78,1.0,5.0,28,0.00,,,0.00,,2013-05-25 19:32:00,
2013-05-25 14:42:00,88.0,51.0,30.17,ENE,78,1.0,5.0,28,0.00,,,0.00,,2013-05-25 19:42:00,
2013-05-25 14:52:00,88.0,55.0,30.17,North,350,0.0,7.0,33,0.00,,,0.00,,2013-05-25 19:52:00,
2013-05-25 15:02:00,88.0,51.0,30.16,SE,138,0.0,4.0,28,0.00,,,0.00,,2013-05-25 20:02:00,
2013-05-25 15:11:00,88.0,51.0,30.16,SE,138,0.0,4.0,28,0.00,,,0.00,,2013-05-25 20:11:00,
2013-05-25 15:21:00,88.0,56.0,30.16,SSE,166,0.0,5.0,34,0.00,,,0.00,,2013-05-25 20:21:00,
2013-05-25 15:32:00,89.0,51.0,30.15,ENE,57,0.0,3.0,27,0.00,,,0.00,,2013-05-25 20:32:00,
2013-05-25 15:42:00,89.0,51.0,30.15,ENE,57,0.0,3.0,27,0.00,,,0.00,,2013-05-25 20:42:00,
2013-05-25 15:52:00,89.0,54.0,30.15,SSE,157,0.0,3.0,31,0.00,,,0.00,,2013-05-25 20:52:00,
2013-05-25 16:02:00,89.0,53.0,30.14,SE,125,0.0,4.0,29,0.00,,,0.00,,2013-05-25 21:02:00,
2013-05-25 16:11:00,89.0,53.0,30.14,SE,125,0.0,4.0,29,0.00,,,0.00,,2013-05-25 21:11:00,
2013-05-25 16:21:00,88.0,55.0,30.14,SE,125,0.0,1.0,33,0.00,,,0.00,,2013-05-25 21:21:00,
2013-05-25 16:33:00,86.0,59.0,30.14,SSE,154,0.0,3.0,40,0.00,,,0.00,,2013-05-25 21:33:00,
2013-05-25 16:43:00,86.0,59.0,30.14,SSE,154,0.0,3.0,40,0.00,,,0.00,,2013-05-25 21:43:00,
2013-05-25 16:53:00,86.0,60.0,30.14,SE,130,1.0,5.0,41,0.00,,,0.00,,2013-05-25 21:53:00,
2013-05-25 17:03:00,83.0,60.0,30.14,ESE,121,1.0,5.0,46,0.00,,,0.00,,2013-05-25 22:03:00,
2013-05-25 17:12:00,83.0,60.0,30.14,ESE,121,1.0,5.0,46,0.00,,,0.00,,2013-05-25 22:12:00,
2013-05-25 17:22:00,82.0,61.0,30.14,ESE,120,1.0,6.0,49,0.00,,,0.00,,2013-05-25 22:22:00,
2013-05-25 17:32:00,81.0,62.0,30.15,ESE,103,0.0,3.0,52,0.00,,,0.00,,2013-05-25 22:32:00,
2013-05-25 17:42:00,81.0,62.0,30.15,ESE,103,0.0,3.0,52,0.00,,,0.00,,2013-05-25 22:42:00,
2013-05-25 17:52:00,82.0,63.0,30.15,SSE,151,1.0,5.0,53,0.00,,,0.00,,2013-05-25 22:52:00,
2013-05-25 18:02:00,82.0,61.0,30.15,SSE,149,1.0,3.0,49,0.00,,,0.00,,2013-05-25 23:02:00,
2013-05-25 18:12:00,82.0,61.0,30.15,SSE,149,1.0,3.0,49,0.00,,,0.00,,2013-05-25 23:12:00,
2013-05-25 18:22:00,81.0,61.0,30.15,NNE,13,0.0,5.0,51,0.00,,,0.00,,2013-05-25 23:22:00,
2013-05-25 18:32:00,80.0,60.0,30.14,ESE,107,0.0,1.0,51,0.00,,,0.00,,2013-05-25 23:32:00,
2013-05-25 18:42:00,80.0,61.0,30.14,ESE,107,0.0,1.0,52,0.00,,,0.00,,2013-05-25 23:42:00,
2013-05-25 18:52:00,80.0,61.0,30.14,ESE,107,0.0,1.0,52,0.00,,,0.00,,2013-05-25 23:52:00,
2013-05-25 19:01:00,79.0,61.0,30.14,ESE,120,0.0,2.0,54,0.00,,,0.00,,2013-05-26 00:01:00,
2013-05-25 19:11:00,79.0,61.0,30.14,ESE,120,0.0,2.0,54,0.00,,,0.00,,2013-05-26 00:11:00,
2013-05-25 19:21:00,79.0,61.0,30.14,SE,125,0.0,3.0,55,0.00,,,0.00,,2013-05-26 00:21:00,
2013-05-25 19:31:00,78.0,60.0,30.14,SE,132,0.0,1.0,54,0.00,,,0.00,,2013-05-26 00:31:00,
2013-05-25 19:42:00,78.0,60.0,30.14,SE,132,0.0,1.0,54,0.00,,,0.00,,2013-05-26 00:42:00,
2013-05-25 19:52:00,77.0,60.0,30.14,SE,132,0.0,1.0,55,0.00,,,0.00,,2013-05-26 00:52:00,
2013-05-25 20:01:00,76.0,60.0,30.14,SE,132,0.0,0.0,58,0.00,,,0.00,,2013-05-26 01:01:00,
2013-05-25 20:11:00,76.0,60.0,30.14,SE,132,0.0,0.0,58,0.00,,,0.00,,2013-05-26 01:11:00,
2013-05-25 20:21:00,74.0,60.0,30.14,SE,132,0.0,0.0,61,0.00,,,0.00,,2013-05-26 01:21:00,
2013-05-25 20:32:00,72.0,60.0,30.14,SE,132,0.0,0.0,67,0.00,,,0.00,,2013-05-26 01:32:00,
2013-05-25 20:42:00,72.0,60.0,30.14,SE,132,0.0,0.0,67,0.00,,,0.00,,2013-05-26 01:42:00,
2013-05-25 20:52:00,71.0,60.0,30.14,SE,132,0.0,0.0,69,0.00,,,0.00,,2013-05-26 01:52:00,
2013-05-25 21:02:00,69.0,60.0,30.15,SE,132,0.0,0.0,73,0.00,,,0.00,,2013-05-26 02:02:00,
2013-05-25 21:11:00,69.0,60.0,30.15,SE,132,0.0,0.0,73,0.00,,,0.00,,2013-05-26 02:11:00,
2013-05-25 21:21:00,69.0,61.0,30.15,SE,132,0.0,0.0,75,0.00,,,0.00,,2013-05-26 02:21:00,
2013-05-25 21:32:00,68.0,61.0,30.15,SE,132,0.0,0.0,78,0.00,,,0.00,,2013-05-26 02:32:00,
2013-05-25 21:42:00,68.0,61.0,30.15,SE,132,0.0,0.0,78,0.00,,,0.00,,2013-05-26 02:42:00,
2013-05-25 21:52:00,67.0,60.0,30.15,SE,132,0.0,0.0,79,0.00,,,0.00,,2013-05-26 02:52:00,
2013-05-25 22:01:00,67.0,61.0,30.16,SE,132,0.0,0.0,82,0.00,,,0.00,,2013-05-26 03:01:00,
2013-05-25 22:11:00,67.0,61.0,30.16,SE,132,0.0,0.0,82,0.00,,,0.00,,2013-05-26 03:11:00,
2013-05-25 22:21:00,66.0,61.0,30.16,SE,132,0.0,0.0,83,0.00,,,0.00,,2013-05-26 03:21:00,
2013-05-25 22:33:00,66.0,61.0,30.17,SE,132,0.0,0.0,84,0.00,,,0.00,,2013-05-26 03:33:00,
2013-05-25 22:42:00,66.0,61.0,30.17,SE,132,0.0,0.0,84,0.00,,,0.00,,2013-05-26 03:42:00,
2013-05-25 22:53:00,65.0,60.0,30.17,SE,132,0.0,0.0,85,0.00,,,0.00,,2013-05-26 03:53:00,
2013-05-25 23:02:00,65.0,61.0,30.17,SE,132,0.0,0.0,86,0.00,,,0.00,,2013-05-26 04:02:00,
2013-05-25 23:12:00,65.0,61.0,30.17,SE,132,0.0,0.0,87,0.00,,,0.00,,2013-05-26 04:12:00,
2013-05-25 23:23:00,65.0,61.0,30.17,SE,132,0.0,0.0,87,0.00,,,0.00,,2013-05-26 04:23:00,
2013-05-25 23:33:00,64.0,60.0,30.16,SE,132,0.0,0.0,88,0.00,,,0.00,,2013-05-26 04:33:00,
2013-05-25 23:42:00,64.0,60.0,30.16,SE,132,0.0,0.0,88,0.00,,,0.00,,2013-05-26 04:42:00,
2013-05-25 23:52:00,64.0,60.0,30.16,SE,132,0.0,0.0,88,0.00,,,0.00,,2013-05-26 04:52:00,